FW9684 Weather Reports


Display with metric or nautical units.
time (UTC)temp
F
wind
direction
speed
MPH
gust
MPH
rain 1hr
in
rain 24hr
in
rain mn
in
humidity
%
barometer
mb
20260506101533 51 29 5.0 12.0 0.00 0.00 0.00 78 1010.9
20260506100036 51 34 4.0 11.0 0.00 0.00 0.00 78 1010.5
20260506094534 52 23 5.0 9.0 0.00 0.00 0.00 80 1010.5
20260506093033 51 37 3.0 8.0 0.00 0.00 0.00 80 1010.2
20260506091526 51 50 4.0 11.0 0.00 0.00 0.00 79 1010.3
20260506090020 51 51 4.0 9.0 0.00 0.00 0.00 79 1010.4
20260506084517 52 42 5.0 11.0 0.00 0.00 0.00 79 1010.4
20260506083015 52 15 7.0 12.0 0.00 0.00 0.00 78 1009.8
20260506081511 52 38 4.0 11.0 0.00 0.00 0.00 77 1009.7
20260506073002 53 35 7.0 12.0 0.00 0.00 0.00 76 1009.7
20260506071559 54 42 6.0 14.0 0.00 0.00 0.00 75 1009.9
20260506061545 56 42 8.0 14.0 0.00 0.00 0.00 71 1009.2
20260506044522 61 36 4.0 17.0 0.00 0.00 0.00 65 1008.2
20260506043018 62 12 8.0 14.0 0.00 0.00 0.00 63 1008.3
20260506041517 62 5 4.0 11.0 0.00 0.00 0.00 61 1008.0
20260506040013 63 40 5.0 12.0 0.00 0.00 0.00 59 1008.0
20260506034511 64 34 4.0 10.0 0.00 0.00 0.00 58 1007.7
20260506033007 65 55 5.0 12.0 0.00 0.00 0.00 56 1007.8
20260506031504 66 32 6.0 14.0 0.00 0.00 0.00 54 1007.5
20260506030000 68 36 8.0 17.0 0.00 0.00 0.00 51 1007.3
20260506024602 70 25 7.0 14.0 0.00 0.00 0.00 48 1007.2
20260506023101 71 55 7.0 12.0 0.00 0.00 0.00 47 1006.9
20260506021556 72 44 6.0 12.0 0.00 0.00 0.00 46 1006.5
20260506020054 73 36 5.0 12.0 0.00 0.00 0.00 44 1006.3
20260506014552 74 44 6.0 11.0 0.00 0.00 0.00 43 1005.8
20260506013051 77 17 4.0 16.0 0.00 0.00 0.00 40 1005.7
20260506011549 78 42 5.0 10.0 0.00 0.00 0.00 37 1005.1
20260506010049 79 13 3.0 8.0 0.00 0.00 0.00 36 1005.2
20260506004547 80 19 4.0 8.0 0.00 0.00 0.00 35 1005.0
20260506003046 80 28 2.0 9.0 0.00 0.00 0.00 33 1005.0
20260506001549 81 14 4.0 9.0 0.00 0.00 0.00 31 1004.8
20260506000045 83 23 1.0 12.0 0.00 0.00 0.00 30 1004.6
20260505234549 85 165 7.0 17.0 0.00 0.00 0.00 22 1004.3
20260505233043 85 159 8.0 19.0 0.00 0.00 0.00 22 1004.1
20260505231552 86 162 11.0 21.0 0.00 0.00 0.00 21 1003.9
20260505230054 87 166 12.0 20.0 0.00 0.00 0.00 21 1003.9
20260505224542 88 181 6.0 16.0 0.00 0.00 0.00 22 1003.3
20260505223039 88 177 11.0 25.0 0.00 0.00 0.00 21 1003.8
20260505221539 89 167 13.0 32.0 0.00 0.00 0.00 20 1003.7
20260505220037 89 159 13.0 22.0 0.00 0.00 0.00 21 1003.5
20260505214536 89 167 9.0 19.0 0.00 0.00 0.00 22 1003.7
20260505213042 90 158 14.0 22.0 0.00 0.00 0.00 20 1003.7
20260505211534 90 173 8.0 15.0 0.00 0.00 0.00 21 1003.3
20260505210035 89 175 8.0 17.0 0.00 0.00 0.00 21 1003.8
20260505204531 90 185 9.0 19.0 0.00 0.00 0.00 20 1004.0
20260505203029 91 176 11.0 20.0 0.00 0.00 0.00 20 1003.8
20260505201527 91 163 10.0 19.0 0.00 0.00 0.00 19 1003.9
20260505200026 93 150 9.0 16.0 0.00 0.00 0.00 19 1003.8
20260505194521 93 173 13.0 36.0 0.00 0.00 0.00 19 1003.4
20260505193017 91 175 7.0 15.0 0.00 0.00 0.00 21 1003.9
20260505191515 91 115 8.0 20.0 0.00 0.00 0.00 21 1004.0
20260505190012 90 170 9.0 17.0 0.00 0.00 0.00 21 1004.1
20260505184508 90 174 8.0 13.0 0.00 0.00 0.00 22 1004.4
20260505183003 90 155 10.0 18.0 0.00 0.00 0.00 22 1004.5
20260505181601 88 156 11.0 18.0 0.00 0.00 0.00 24 1004.7
20260505180106 87 132 6.0 14.0 0.00 0.00 0.00 27 1004.9
20260505174609 87 184 6.0 13.0 0.00 0.00 0.00 28 1004.8
20260505173051 86 160 7.0 15.0 0.00 0.00 0.00 32 1004.9
20260505171550 84 186 5.0 16.0 0.00 0.00 0.00 35 1005.0
20260505170046 84 161 8.0 15.0 0.00 0.00 0.00 36 1005.1
20260505164543 82 177 5.0 15.0 0.00 0.00 0.00 40 1005.0
20260505163039 82 153 5.0 17.0 0.00 0.00 0.00 42 1005.1
20260505161537 81 162 9.0 22.0 0.00 0.00 0.00 46 1005.0
20260505153024 76 157 12.0 18.0 0.00 0.00 0.00 57 1004.5
20260505151521 75 158 13.0 21.0 0.00 0.00 0.00 58 1004.4
20260505124513 67 148 11.0 20.0 0.00 0.00 0.00 81 1003.3
20260505123022 67 152 10.0 20.0 0.00 0.00 0.00 81 1003.2
20260505121506 67 146 12.0 19.0 0.00 0.00 0.00 82 1002.9
20260505120008 67 134 11.0 20.0 0.00 0.00 0.00 81 1003.0
20260505114603 67 122 11.0 21.0 0.00 0.00 0.00 80 1002.8
20260505113059 67 151 11.0 21.0 0.00 0.00 0.00 80 1002.6
20260505111556 68 149 12.0 23.0 0.00 0.00 0.00 80 1002.9